Find Starlink 35049

NORAD ID: 65444 Int'l Des: 2025-194 Owner: SPXS Country: US Constellation: starlink operational
LEOCIRCULARRETROGRADESSO

Live Position

Loading 3D Globe...

About Starlink 35049

Description loading...

Upcoming Passes

Passes for default location (London). Set your location on the main map for personalized predictions.

Altitude History

Loading altitude history...

Two-Line Element Set

1 65444U 25194L 26103.55420599 .00003581 00000-0 25229-3 0 9995
2 65444 97.6023 318.7507 0001619 86.6751 273.4661 15.05650913 34891
Epoch: Apr 13, 2026 • Age: 20 hours

Current Status

Altitude 571.2 km
Velocity 7.57 km/s
Sub-Earth Point -53.75°S, 19.49°W
Launch Date Sep 3, 2025
Age 0.6 years
Type internet

Technical Details

Classification Payload
Mass 575.00 kg
Dry Mass 530.00 kg
Total Mass 575.00 kg
Length 0.30 m
Diameter 4.10 m
Span 29.00 m
Shape Box + pan
Manufacturer SPXS
Bus Type Starlink V2MO
Phase Status In Orbit
Owner/State SPXS/US

Most Searched